| time (UTC) | temp C | wind direction | speed KPH | gust KPH | rain 1hr cm | rain 24hr cm | rain mn cm | humidity % | barometer mb |
| 20260503013055 | 27 | 0 | 0.0 | 0.0 | 0.00 | 0.00 | 0.00 | 80 | 1013.3 |
| 20260503011551 | 27 | 0 | 0.0 | 4.8 | 0.00 | 0.00 | 0.00 | 79 | 1013.2 |
| 20260503004601 | 27 | 229 | 0.0 | 4.8 | 0.00 | 0.00 | 0.00 | 79 | 1012.8 |
| 20260503003106 | 27 | 228 | 1.6 | 4.8 | 0.00 | 0.00 | 0.00 | 78 | 1012.6 |
| 20260503001627 | 27 | 255 | 0.0 | 3.2 | 0.00 | 0.00 | 0.00 | 77 | 1012.5 |
| 20260503000110 | 27 | 0 | 1.6 | 4.8 | 0.00 | 0.00 | 0.00 | 77 | 1012.3 |
| 20260502234554 | 28 | 0 | 0.0 | 6.4 | 0.00 | 0.00 | 0.00 | 77 | 1012.1 |
| 20260502233053 | 28 | 0 | 1.6 | 6.4 | 0.00 | 0.00 | 0.00 | 75 | 1012.0 |
| 20260502231553 | 28 | 246 | 1.6 | 11.3 | 0.00 | 0.00 | 0.00 | 75 | 1011.7 |
| 20260502230050 | 28 | 236 | 4.8 | 8.0 | 0.00 | 0.00 | 0.00 | 74 | 1011.4 |
| 20260502224555 | 29 | 0 | 1.6 | 6.4 | 0.00 | 0.00 | 0.00 | 72 | 1011.4 |
| 20260502223051 | 28 | 0 | 0.0 | 8.0 | 0.00 | 0.00 | 0.00 | 73 | 1011.3 |
| 20260502221552 | 28 | 227 | 1.6 | 9.7 | 0.00 | 0.00 | 0.00 | 73 | 1011.3 |
| 20260502220055 | 28 | 0 | 0.0 | 8.0 | 0.00 | 0.00 | 0.00 | 75 | 1011.3 |
| 20260502214553 | 28 | 232 | 3.2 | 11.3 | 0.00 | 0.00 | 0.00 | 75 | 1011.3 |
| 20260502213106 | 28 | 259 | 4.8 | 12.9 | 0.00 | 0.00 | 0.00 | 76 | 1011.2 |
| 20260502211554 | 28 | 279 | 6.4 | 16.1 | 0.00 | 0.00 | 0.00 | 76 | 1011.0 |
| 20260502210053 | 28 | 235 | 8.0 | 16.1 | 0.00 | 0.00 | 0.00 | 75 | 1010.9 |
| 20260502204555 | 29 | 238 | 1.6 | 12.9 | 0.00 | 0.00 | 0.00 | 73 | 1011.1 |
| 20260502203104 | 29 | 247 | 1.6 | 14.5 | 0.00 | 0.00 | 0.00 | 73 | 1011.4 |
| 20260502201602 | 29 | 292 | 4.8 | 14.5 | 0.00 | 0.00 | 0.00 | 70 | 1011.5 |
| 20260502200137 | 28 | 250 | 6.4 | 16.1 | 0.00 | 0.00 | 0.00 | 71 | 1011.7 |
| 20260502194607 | 28 | 296 | 8.0 | 16.1 | 0.00 | 0.00 | 0.00 | 72 | 1011.8 |
| 20260502193056 | 29 | 288 | 3.2 | 19.3 | 0.00 | 0.00 | 0.00 | 72 | 1011.9 |
| 20260502191607 | 28 | 233 | 4.8 | 17.7 | 0.00 | 0.00 | 0.00 | 75 | 1012.1 |
| 20260502190057 | 28 | 233 | 4.8 | 17.7 | 0.00 | 0.00 | 0.00 | 74 | 1012.3 |
| 20260502184553 | 28 | 260 | 6.4 | 17.7 | 0.00 | 0.00 | 0.00 | 75 | 1012.3 |
| 20260502183059 | 28 | 243 | 4.8 | 14.5 | 0.00 | 0.00 | 0.00 | 76 | 1012.3 |
| 20260502181554 | 28 | 308 | 6.4 | 22.5 | 0.00 | 0.00 | 0.00 | 77 | 1012.2 |
| 20260502163055 | 28 | 254 | 6.4 | 24.1 | 0.00 | 0.00 | 0.00 | 76 | 1012.5 |
| 20260502161551 | 28 | 259 | 9.7 | 22.5 | 0.00 | 0.00 | 0.00 | 76 | 1012.6 |
| 20260502160105 | 28 | 271 | 6.4 | 19.3 | 0.00 | 0.00 | 0.00 | 76 | 1012.6 |
| 20260502151611 | 28 | 256 | 8.0 | 27.4 | 0.00 | 0.00 | 0.00 | 77 | 1012.6 |
| 20260502150127 | 28 | 247 | 9.7 | 24.1 | 0.00 | 0.00 | 0.00 | 77 | 1012.7 |
| 20260502130104 | 27 | 253 | 9.7 | 20.9 | 0.00 | 0.00 | 0.00 | 76 | 1012.1 |
| 20260502123052 | 27 | 242 | 9.7 | 24.1 | 0.00 | 0.00 | 0.00 | 79 | 1011.8 |
| 20260502121604 | 27 | 229 | 8.0 | 22.5 | 0.00 | 0.00 | 0.00 | 80 | 1011.9 |
| 20260502120112 | 26 | 251 | 12.9 | 27.4 | 0.00 | 0.00 | 0.00 | 83 | 1011.7 |
| 20260502114558 | 26 | 246 | 9.7 | 25.7 | 0.00 | 0.00 | 0.00 | 84 | 1011.8 |
| 20260502113111 | 26 | 240 | 12.9 | 27.4 | 0.00 | 0.00 | 0.00 | 84 | 1011.8 |
| 20260502111605 | 26 | 257 | 9.7 | 22.5 | 0.00 | 0.00 | 0.00 | 83 | 1011.7 |
| 20260502110105 | 26 | 244 | 11.3 | 22.5 | 0.00 | 0.00 | 0.00 | 82 | 1011.8 |
| 20260502104555 | 26 | 241 | 8.0 | 17.7 | 0.00 | 0.00 | 0.00 | 82 | 1011.5 |
| 20260502103114 | 26 | 221 | 8.0 | 19.3 | 0.00 | 0.00 | 0.00 | 82 | 1011.3 |
| 20260502101607 | 26 | 235 | 8.0 | 19.3 | 0.00 | 0.00 | 0.00 | 82 | 1011.3 |
| 20260502070101 | 26 | 238 | 9.7 | 17.7 | 0.00 | 0.00 | 0.00 | 83 | 1011.6 |
| 20260502064557 | 26 | 253 | 9.7 | 17.7 | 0.00 | 0.00 | 0.00 | 83 | 1011.5 |
| 20260502063115 | 26 | 250 | 9.7 | 19.3 | 0.00 | 0.00 | 0.00 | 83 | 1011.5 |
| 20260502061559 | 26 | 257 | 9.7 | 20.9 | 0.00 | 0.00 | 0.00 | 83 | 1011.4 |
| 20260502060106 | 26 | 221 | 11.3 | 24.1 | 0.00 | 0.00 | 0.00 | 84 | 1011.5 |
| 20260502054613 | 26 | 244 | 8.0 | 17.7 | 0.00 | 0.00 | 0.00 | 84 | 1011.6 |
| 20260502053101 | 26 | 222 | 9.7 | 19.3 | 0.00 | 0.00 | 0.00 | 84 | 1011.9 |
| 20260502051556 | 26 | 246 | 8.0 | 17.7 | 0.00 | 0.00 | 0.00 | 83 | 1012.1 |
| 20260502050058 | 26 | 224 | 6.4 | 16.1 | 0.00 | 0.00 | 0.00 | 83 | 1012.1 |
| 20260502044558 | 26 | 237 | 6.4 | 16.1 | 0.00 | 0.00 | 0.00 | 83 | 1012.2 |
| 20260502043109 | 26 | 232 | 6.4 | 14.5 | 0.00 | 0.00 | 0.00 | 82 | 1012.3 |
| 20260502041605 | 26 | 234 | 6.4 | 12.9 | 0.00 | 0.00 | 0.00 | 83 | 1012.4 |
| 20260502040104 | 26 | 240 | 4.8 | 16.1 | 0.00 | 0.00 | 0.00 | 83 | 1012.4 |
| 20260502034557 | 26 | 206 | 4.8 | 12.9 | 0.00 | 0.00 | 0.00 | 83 | 1012.2 |
| 20260502033059 | 26 | 215 | 8.0 | 16.1 | 0.00 | 0.00 | 0.00 | 82 | 1012.2 |
| 20260502031606 | 26 | 216 | 6.4 | 14.5 | 0.00 | 0.00 | 0.00 | 82 | 1012.2 |
| 20260502030106 | 26 | 215 | 3.2 | 12.9 | 0.00 | 0.00 | 0.00 | 82 | 1012.2 |
| 20260502024557 | 26 | 211 | 6.4 | 12.9 | 0.00 | 0.00 | 0.00 | 81 | 1012.1 |
| 20260502023100 | 26 | 186 | 4.8 | 11.3 | 0.00 | 0.00 | 0.00 | 81 | 1012.0 |
| 20260502021557 | 26 | 229 | 4.8 | 14.5 | 0.00 | 0.00 | 0.00 | 80 | 1011.8 |
| 20260502020056 | 26 | 233 | 6.4 | 12.9 | 0.00 | 0.00 | 0.00 | 81 | 1011.7 |
| 20260502014558 | 26 | 164 | 4.8 | 11.3 | 0.00 | 0.00 | 0.00 | 80 | 1011.6 |